Regional Weather Roundup
Issued by NWS Sioux Falls, SD

Home | Current Version | Previous Version | Text Only | Print | Product List | Glossary Off
Versions: 1 2 3 4 5 6 7 8 9 10 11 12 13 14 15 16 17 18 19 20 21 22 23 24 25 26 27 28 29 30 31 32 33 34 35 36 37 38 39 40 41 42 43 44 45 46 47 48 49 50

000
ASUS43 KFSD 231810
RWRFSD

WEATHER ROUNDUP FOR SE SOUTH DAKOTA/SW MINNESOTA/NW IOWA
NATIONAL WEATHER SERVICE SIOUX FALLS SD
1200 PM CST FRI FEB 23 2018

NOTE: "FAIR" INDICATES FEW OR NO CLOUDS BELOW 12,000 FEET WITH NO
SIGNIFICANT WEATHER AND OR OBSTRUCTIONS TO VISIBILITY.


SDZ038>040-050-052>070-231900-
SOUTHEAST SOUTH DAKOTA

CITY           SKY/WX    TMP DP  RH WIND       PRES   REMARKS
BROOKINGS      CLOUDY    24  19  81 NW13      30.23  WCI  12
CHAMBERLAIN    FLURRIES  14  12  94 W9        30.29S WCI   1
6HR MIN TEMP:   6; 6HR MAX TEMP:  14;

HURON          SUNNY     17  11  77 NW15      30.29R WCI   2
6HR MIN TEMP:   7; 6HR MAX TEMP:  17;

MADISON        CLOUDY    19  19 100 NW12      30.24R WCI   7
MITCHELL       CLOUDY    16  12  84 W9        30.31R WCI   4
6HR MIN TEMP:  10; 6HR MAX TEMP:  16;

SIOUX FALLS    CLOUDY    21  18  88 W10       30.27R WCI  10
6HR MIN TEMP:  14; 6HR MAX TEMP:  21;

WINNER         FAIR      13   5  70 NW10      30.28S WCI   0
YANKTON        CLOUDY    22  17  81 NW12      30.31R WCI  10
$$

MNZ071-072-080-081-089-090-097-098-231900-
SOUTHWEST MINNESOTA

CITY           SKY/WX    TMP DP  RH WIND       PRES   REMARKS
FAIRMONT       FLURRIES  27  20  75 NW17      30.23S WCI  14
JACKSON        MOSUNNY   25  19  80 W12       30.23R WCI  14
LUVERNE        CLOUDY    25  19  80 W7        30.27R WCI  17
MARSHALL       MOSUNNY   25  19  78 NW12      30.24R WCI  14
6HR MIN TEMP:  11; 6HR MAX TEMP:  25;

MONTEVIDEO     PTSUNNY   27  21  80 N10       30.23R WCI  17
PIPESTONE      PTSUNNY   23  19  86 NW8       30.22R WCI  14
REDWOOD FALLS  CLOUDY    22  18  85 W9        30.24R WCI  12
TRACY          SUNNY     25  20  83 NW12      30.24R WCI  14
WORTHINGTON    PTSUNNY   26  20  77 W12       30.24R WCI  16
$$

IAZ001>003-012>014-020>022-031-032-NEZ013-014-SDZ071-231900-
NORTHWEST IOWA

CITY           SKY/WX    TMP DP  RH WIND       PRES   REMARKS
CHEROKEE       CLOUDY    22  19  91 W9        30.30R WCI  11
DENISON        PTSUNNY   25  21  86 W6        30.33R WCI  18
ESTHERVILLE    SUNNY     23  18  81 NW15      30.23R WCI  10
LE MARS        CLOUDY    19  18  93 NW10G17   30.29S WCI   8
ORANGE CITY    CLOUDY    19  19 100 N9        30.27R WCI   9
SHELDON        CLOUDY    19  18  93 W9        30.25S WCI   9
SIOUX CITY     CLOUDY    20  17  88 NW7       30.34R WCI  11
6HR MIN TEMP:  12; 6HR MAX TEMP:  21;

SPENCER        CLOUDY    23  18  81 NW15      30.26R WCI  10
6HR MIN TEMP:  20; 6HR MAX TEMP:  23;

STORM LAKE     CLOUDY    21  19  93 W9        30.28R WCI  11
$$

ABBREVIATIONS USED IN REMARKS
   TC - TEMPERATURE IN CELSIUS
  WCI - WIND CHILL INDEX
   HX - HEAT INDEX
  VSB - VISIBILITY





USA.gov is the U.S. government's official web portal to all federal, state and local government web resources and services.